Regional Weather Roundup
Issued by NWS

Home | Current Version | Previous Version | Graphics & Text | Print | Product List | Glossary On
Versions: 1 2 3 4 5 6 7 8 9 10 11 12 13 14 15 16 17 18 19 20 21 22 23 24 25 26 27 28 29 30 31 32 33 34 35 36 37 38 39 40 41 42 43 44 45 46 47 48 49 50
000
ASUS43 KIND 281709
RWRIN

WEATHER ROUNDUP FOR INDIANA
NATIONAL WEATHER SERVICE INDIANAPOLIS IN
1200 PM EST SAT FEB 28 2015

NOTE: "FAIR" INDICATES FEW OR NO CLOUDS BELOW 12,000 FEET WITH NO
SIGNIFICANT WEATHER AND/OR OBSTRUCTIONS TO VISIBILITY.

* - STATION DOES NOT REPORT WEATHER SUCH AS PRECIPITATION OR FOG.

+ - STATION NOT QUALITY CONTROLLED BY THE NATIONAL WEATHER SERVICE.
    USE DATA WITH CAUTION...ESPECIALLY DEWPOINT AND RELATIVE
    HUMIDITY OBSERVATIONS.

INZ001>003-010>013-019-020-281800-
NORTHWEST INDIANA

CITY           SKY/WX    TMP DP  RH WIND       PRES   REMARKS
GARY /AIRPORT/ PTSUNNY   18  -6  35 SE7       30.73S WCI   8
KNOX *+          N/A     18 -13  25 SE8       30.72S WCI   7
LA PORTE +     CLOUDY    17   1  49 CALM      30.72F
MICHIGAN CITY+ MOSUNNY   18  -8  32 S7        30.73S WCI   8
MONTICELLO +   MOSUNNY   17   6  61 E6        30.71S WCI   8
RENSSELAER +   PTSUNNY   19   9  63 E5        30.71F WCI  13
VALPARAISO     CLOUDY    11   1  64 E6        30.71F WCI   1

$$

LMZ046-743>745-281800-
SOUTHERN LAKE MICHIGAN

STATION/POSITION TIME  TEMP WIND        PRES
                       AIR  DIR/SP/G
                 (UTC) (F)  (DEG/KT/KT) (MB)
MICHIGAN CITY    1700   14  140/  5/  6   N/A

$$

INZ004-005-014>016-021>024-281800-
NORTH CENTRAL INDIANA

CITY           SKY/WX    TMP DP  RH WIND       PRES   REMARKS
ELKHART        SUNNY     16  -2  45 S6        30.73S WCI   7
GOSHEN         SUNNY     17   2  51 CALM      30.72S
LOGANSPORT +   CLOUDY    19   9  63 SE6       30.72F WCI  11
PERU/GRISSOM   CLOUDY    19   8  61 SE7       30.70S WCI  10
ROCHESTER +    SUNNY     23   5  46 SE6       30.72S WCI  16
SOUTH BEND     MOSUNNY   16   0  49 VRB3      30.72F
WARSAW +       SUNNY     19   3  49 S6        30.71F WCI  11

$$

INZ006>009-017-018-025>027-281800-
NORTHEAST INDIANA

CITY           SKY/WX    TMP DP  RH WIND       PRES   REMARKS
ANGOLA *+      SUNNY     14   1  57 S6        30.71S WCI   5
AUBURN +       SUNNY     21   1  42 SE5       30.73S WCI  15
FORT WAYNE     MOSUNNY   17   5  59 SE9       30.73F WCI   6
HUNTINGTON +   SUNNY     19   0  44 SE9       30.72F WCI   8

$$

INZ028-029-035-036-043>045-051>053-281800-
WEST CENTRAL INDIANA

CITY           SKY/WX    TMP DP  RH WIND       PRES   REMARKS
CRAWFORDSVL +  PTSUNNY   19   0  44 E10       30.67F WCI   7
GREENCASTLE +  CLOUDY    21   1  42 E8        30.67F WCI  12
LAFAYETTE      CLOUDY    20   7  57 VRB6      30.70F WCI  12
TERRE HAUTE    CLOUDY    22   6  50 SE8       30.67F WCI  12

$$

INZ030>032-037>040-046>048-054>057-064-065-281800-
CENTRAL INDIANA

CITY           SKY/WX    TMP DP  RH WIND       PRES   REMARKS
ANDERSON       CLOUDY    21   5  49 SE8       30.71S WCI  12
CP ATTERBURY + CLOUDY    23   5  46 E5        30.70F WCI  17
COLUMBUS       CLOUDY    21   1  42 E6        30.70F WCI  14
FRANKFORT +    SUNNY     20   8  60 E7        30.70F WCI  11
GREENWOOD *+   CLOUDY    19   1  45 E9        30.69F WCI   9
INDIANAPOLIS   CLOUDY    20   5  52 E9        30.67F WCI   9
-EAGLE CREEK   CLOUDY    20   5  52 E10       30.68F WCI   9
KOKOMO *+      SUNNY     19   9  63 SE9       30.71S WCI   9
MARION +       CLOUDY    18   5  57 SE6       30.71F WCI  10
MT COMFORT *+  SUNNY     21  -4  33 SE8       30.69F WCI  12
SHELBYVILLE    CLOUDY    22   6  50 E6        30.70S WCI  14
ZIONSVILLE +   CLOUDY    21   3  46 SE7       30.68F WCI  12

$$

INZ033-034-041-042-049-050-058-059-281800-
EAST CENTRAL INDIANA

CITY           SKY/WX    TMP DP  RH WIND       PRES   REMARKS
MUNCIE         PTSUNNY   19   5  54 E10       30.71R WCI   7

$$

INZ060-061-067>069-081>083-085>088-281800-
SOUTHWEST INDIANA

CITY           SKY/WX    TMP DP  RH WIND       PRES   REMARKS
EVANSVILLE     CLOUDY    28  11  48 E5        30.65F WCI  23
HUNTINGBURG *+ SUNNY     27  10  50 E8        30.65F WCI  18
WASHINGTON +   CLOUDY    26   5  41 E9        30.66F WCI  17

$$

INZ062-063-066-070>080-084-089>092-281800-
SOUTH CENTRAL AND SOUTHEAST INDIANA

CITY           SKY/WX    TMP DP  RH WIND       PRES   REMARKS
BLOOMINGTON    CLOUDY    22   4  46 E9        30.65F WCI  12
NORTH VERNON + CLOUDY    25   1  36 E7        30.69F WCI  17
SEYMOUR +      CLOUDY    27   7  43 E6        30.69F WCI  20

$$



USA.gov is the U.S. government's official web portal to all federal, state and local government web resources and services.